Weather History for Doncaster Sheffield, United Kingdom

Change the Weather History Date:

Saturday, March 23, 2013

  Actual Average Record
Temperature  
Mean Temperature 32 °F -  
Max Temperature 33 °F - - ()
Min Temperature 32 °F - - ()
Degree Days  
Heating Degree Days 32    
Moisture  
Dew Point 30 °F    
Average Humidity 89    
Maximum Humidity 100    
Minimum Humidity 70    
Precipitation  
Precipitation 0.00 in - - ()
Sea Level Pressure  
Sea Level Pressure 30.02 in    
Wind  
Wind Speed 11 mph ()    
Max Wind Speed 16 mph    
Max Gust Speed 28 mph    
Visibility 3.7 miles    
Events Snow    
T = Trace of Precipitation, MM = Missing Value Source: Averaged Metar Reports

Daily Weather History Graph

Daily Weather History Graph

Search for Another Location

Airport:

Trip Planner

Search our weather history database for the weather conditions in past years. The results will help you decide how hot, cold, wet, or windy it might be!

Date:

Astronomy

Mar. 23, 2013 Rise Set
Actual Time 5:59 AM GMT 6:23 PM GMT
Civil Twilight 5:24 AM GMT 6:58 PM GMT
Nautical Twilight 4:42 AM GMT 7:39 PM GMT
Astronomical Twilight 3:58 AM GMT 8:24 PM GMT
Moon 2:06 PM GMT (3/23) 3:57 AM GMT (3/23)
Length of Visible Light 13h 34m
Length of Day
12h 24m
Waxing Gibbous, 83% of the Moon is Illuminated
Mar 23
Waxing Gibbous
Mar 27
Full
Apr 3
Last Quarter
Apr 10
New
Apr 18
First Quarter

Hourly Weather History & Observations

Time (GMT) Temp. Windchill Dew Point Humidity Pressure Visibility Wind Dir Wind Speed Gust Speed Precip Events Conditions
12:20 AM 33.8 °F 25.3 °F 33.8 °F 100% 29.95 in 1.1 mi East 11.5 mph - N/A Snow Light Snow
12:50 AM 33.8 °F 25.8 °F 32.0 °F 93% 29.95 in 1.2 mi East 10.4 mph - N/A Snow Light Snow
1:20 AM 32.0 °F 23.0 °F 32.0 °F 100% 29.95 in 1.1 mi East 11.5 mph - N/A Snow Snow
1:50 AM 32.0 °F 23.6 °F 32.0 °F 100% 29.95 in 0.6 mi East 10.4 mph - N/A Snow Snow
2:20 AM 32.0 °F 23.0 °F 32.0 °F 100% 29.95 in 0.6 mi East 11.5 mph - N/A Snow Snow
5:20 AM 32.0 °F 24.2 °F 32.0 °F 100% 29.98 in 1.2 mi East 9.2 mph - N/A Snow Light Snow
5:50 AM 32.0 °F 23.0 °F 32.0 °F 100% 29.98 in 1.2 mi East 11.5 mph - N/A Snow Light Snow
6:20 AM 32.0 °F 22.1 °F 32.0 °F 100% 29.98 in 1.2 mi East 13.8 mph - N/A Snow Light Snow
6:50 AM 32.0 °F 23.0 °F 30.2 °F 93% 29.98 in 1.2 mi East 11.5 mph - N/A Snow Light Snow
7:04 AM 32.0 °F 23.6 °F 32.0 °F 100% 29.98 in 0.7 mi ENE 10.4 mph - N/A Snow Light Snow
7:20 AM 32.0 °F 22.1 °F 32.0 °F 100% 30.01 in 0.7 mi East 13.8 mph - N/A Snow Light Snow
7:50 AM 32.0 °F 23.0 °F 32.0 °F 100% 30.01 in 0.7 mi ENE 11.5 mph - N/A Snow Light Snow
8:20 AM 33.8 °F 25.8 °F 32.0 °F 93% 30.01 in 1.9 mi East 10.4 mph - N/A Snow Light Snow
8:25 AM 32.0 °F 22.5 °F 32.0 °F 100% 30.01 in 1.9 mi East 12.7 mph - N/A   Mostly Cloudy
8:50 AM 32.0 °F 23.0 °F 32.0 °F 100% 30.01 in 1.9 mi East 11.5 mph - N/A   Mostly Cloudy
9:00 AM 32.0 °F 23.0 °F 32.0 °F 100% 30.01 in 1.9 mi ENE 11.5 mph - N/A Snow Light Snow Showers
9:20 AM 32.0 °F 23.0 °F 32.0 °F 100% 30.01 in 1.2 mi East 11.5 mph - N/A Snow Light Snow
9:50 AM 32.0 °F 23.0 °F 32.0 °F 100% 30.01 in 1.9 mi East 11.5 mph - N/A Snow Light Snow
10:20 AM 32.0 °F 23.6 °F 32.0 °F 100% 30.01 in 1.9 mi ENE 10.4 mph - N/A Snow Light Snow
10:50 AM 32.0 °F 23.0 °F 32.0 °F 100% 30.04 in 3.7 mi East 11.5 mph - N/A Snow Light Snow
11:02 AM 32.0 °F 22.5 °F 32.0 °F 100% 30.04 in 3.7 mi East 12.7 mph - N/A   Mostly Cloudy
11:20 AM 32.0 °F 22.1 °F 32.0 °F 100% 30.04 in 3.7 mi East 13.8 mph - N/A   Mostly Cloudy
11:50 AM 33.8 °F 24.8 °F 32.0 °F 93% 30.04 in 2.5 mi East 12.7 mph - N/A Snow Light Snow
12:20 PM 33.8 °F 24.8 °F 32.0 °F 93% 30.04 in 1.9 mi East 12.7 mph - N/A Snow Light Snow
12:50 PM 33.8 °F 23.5 °F 32.0 °F 93% 30.01 in 1.9 mi East 16.1 mph - N/A Snow Light Snow
1:50 PM 33.8 °F 24.3 °F 30.2 °F 87% 30.01 in 6.2 mi East 13.8 mph - N/A Snow Light Snow
2:20 PM 33.8 °F 24.8 °F 30.2 °F 87% 30.04 in 6.2 mi East 12.7 mph - N/A Snow Light Snow
2:50 PM 32.0 °F 21.2 °F 30.2 °F 93% 30.04 in 6.2 mi ENE 16.1 mph 27.6 mph N/A Snow Light Snow
3:20 PM 33.8 °F 24.3 °F 30.2 °F 87% 30.04 in 6.2 mi East 13.8 mph - N/A   Overcast
3:50 PM 32.0 °F 22.5 °F 28.4 °F 87% 30.04 in 6.2 mi East 12.7 mph - N/A   Mostly Cloudy
4:20 PM 33.8 °F 24.8 °F 28.4 °F 81% 30.04 in 6.2 mi East 12.7 mph - N/A   Overcast
4:50 PM 33.8 °F 24.3 °F 28.4 °F 81% 30.04 in 6.2 mi ENE 13.8 mph - N/A   Mostly Cloudy
5:20 PM 32.0 °F 22.5 °F 26.6 °F 80% 30.04 in 6.2 mi East 12.7 mph - N/A   Mostly Cloudy
5:50 PM 33.8 °F 25.3 °F 26.6 °F 75% 30.04 in 6.2 mi ENE 11.5 mph - N/A   Mostly Cloudy
6:20 PM 33.8 °F 25.3 °F 26.6 °F 75% 30.06 in 6.2 mi ENE 11.5 mph - N/A   Mostly Cloudy
6:50 PM 33.8 °F 24.8 °F 26.6 °F 75% 30.06 in 6.2 mi ENE 12.7 mph - N/A   Overcast
7:20 PM 33.8 °F 25.3 °F 26.6 °F 75% 30.06 in 6.2 mi ENE 11.5 mph - N/A   Overcast
7:50 PM 33.8 °F 25.3 °F 26.6 °F 75% 30.06 in 6.2 mi ENE 11.5 mph - N/A   Overcast
8:20 PM 33.8 °F 25.8 °F 26.6 °F 75% 30.06 in 6.2 mi ENE 10.4 mph - N/A   Overcast
8:50 PM 33.8 °F 25.3 °F 26.6 °F 75% 30.06 in 6.2 mi ENE 11.5 mph - N/A   Overcast
9:20 PM 33.8 °F 25.3 °F 26.6 °F 75% 30.06 in 6.2 mi ENE 11.5 mph - N/A   Overcast
9:50 PM 33.8 °F 25.3 °F 26.6 °F 75% 30.06 in 6.2 mi ENE 11.5 mph - N/A   Overcast
10:20 PM 33.8 °F 25.3 °F 24.8 °F 70% 30.06 in 6.2 mi ENE 11.5 mph - N/A   Overcast
10:50 PM 33.8 °F 24.8 °F 24.8 °F 70% 30.06 in 6.2 mi ENE 12.7 mph - N/A   Mostly Cloudy
11:20 PM 33.8 °F 24.8 °F 26.6 °F 75% 30.06 in 6.2 mi ENE 12.7 mph - N/A   Mostly Cloudy
11:50 PM 33.8 °F 24.8 °F 24.8 °F 70% 30.06 in 6.2 mi ENE 12.7 mph - N/A   Mostly Cloudy